[[{"header":{"parameterUnit":"m.s-1","parameterCategory":1,"la1":30.2991,"la2":30.254,"lo1":-89.0895,"lo2":-89.0444,"dy":0.0017,"dx":0.0017,"nx":28,"ny":28,"refTime":"2025-11-14T03:00:00:Z","depth":0,"parameterNumber":2,"parameterNumberName":"U-component_of_WINDS"},"data":[0,0,0,0,0,0,0,0,0,0,0,0,0,0,0,0,0,0,0,0,0,0,0,0,0,0,0,0,0,0,0,0,0,0,0,0,0,0,0,0,0,0,0,0,0,0,0,0,0,0,0,0,0,0,0,0,0,0,0.638,0.638,0,0.6424,0.6424,0.6425,0.6444,0.6444,0.6444,0.6444,0.6488,0.6489,0.6491,0,0,0,0,0,0,0,0,0,0,0,0,0,0.6313,0.6314,0.638,0.638,0.6381,0.6424,0.6424,0.6425,0.6444,0.6444,0.6444,0.6444,0.6488,0.6489,0.6491,0,0,0,0,0,0,0,0,0,0,0,0,0,0.6348,0.6314,0.638,0.6396,0.6398,0.6424,0.6424,0.6425,0.6444,0.6444,0.6444,0.6444,0.6487,0.6489,0.6491,0.6504,0,0,0.6497,0.6497,0,0,0,0,0,0,0,0,0.6346,0.635,0.6393,0.6395,0.6397,0.6428,0.6417,0.6451,0.6444,0.6426,0.6444,0.6444,0.6468,0.6472,0.648,0.6506,0.6508,0.6497,0.6498,0.6499,0.6499,0,0,0,0,0,0,0,0.6343,0.6348,0.6397,0.6393,0.6396,0.6401,0.6405,0.6423,0.6447,0.6428,0.6429,0.6434,0.6469,0.6478,0.6481,0.6509,0.6497,0.6498,0.6499,0.65,0.6549,0.6549,0,0,0,0,0,0,0.6338,0.6346,0.6396,0.6399,0.637,0.6402,0.6407,0.6418,0.6447,0.6451,0.6434,0.6435,0.6475,0.6479,0.6483,0.6501,0.6499,0.65,0.6501,0.6548,0.6549,0.6549,0,0,0,0,0,0,0.6337,0.6342,0.6394,0.6373,0.638,0.6403,0.6415,0.6419,0.6428,0.6452,0.6456,0.6439,0.6475,0.648,0.6499,0.6503,0.6501,0.6503,0.6548,0.6549,0.6549,0.6536,0,0,0,0,0,0,0.6335,0.6342,0.6347,0.6373,0.6381,0.6409,0.6415,0.642,0.6431,0.6433,0.6458,0.6462,0.6476,0.6496,0.6501,0.6505,0.6504,0.6548,0.6548,0.6549,0.6537,0.6536,0.6536,0,0,0,0,0,0.6332,0.6341,0.6347,0.6353,0.6388,0.6409,0.6414,0.643,0.6432,0.6437,0.6453,0.6461,0.6501,0.6498,0.6503,0.6508,0.6548,0.6548,0.6549,0.6537,0.6536,0.6536,0,0,0,0,0,0,0.6315,0.6345,0.6352,0.637,0.6387,0.6413,0.642,0.6429,0.6446,0.6446,0.6465,0.6471,0.6488,0.65,0.6495,0.6523,0.6525,0.6527,0.6514,0.6514,0.6514,0.6511,0.6506,0,0,0,0,0,0.6313,0.6328,0.6354,0.6367,0.6376,0.6396,0.6406,0.6417,0.6436,0.6443,0.646,0.6477,0.6494,0.6505,0.6522,0.6538,0.6544,0.6545,0.6544,0.6544,0.6545,0.6556,0.6556,0.655,0.655,0.655,0,0,0.631,0.6328,0.6336,0.6364,0.6379,0.6394,0.6402,0.6418,0.643,0.6445,0.6464,0.6477,0.6498,0.6516,0.6525,0.6527,0.6548,0.6544,0.6544,0.6545,0.6556,0.6557,0.6557,0.655,0.655,0.655,0,0,0.6311,0.6327,0.634,0.6355,0.6377,0.6391,0.6394,0.6419,0.6428,0.6448,0.646,0.6474,0.6502,0.6517,0.6528,0.6536,0.6545,0.6541,0.6539,0.6549,0.655,0.655,0.6554,0.6555,0.6542,0.6542,0.6542,0,0.6304,0.6328,0.6345,0.6361,0.6373,0.6388,0.6402,0.6415,0.6442,0.645,0.6452,0.6488,0.6503,0.6525,0.6527,0.6536,0.654,0.6538,0.6548,0.6549,0.655,0.6553,0.6555,0.6542,0.6542,0.6542,0.6542,0,0.6318,0.6335,0.6343,0.6369,0.6382,0.6396,0.6416,0.6427,0.6437,0.645,0.647,0.6489,0.651,0.6516,0.6525,0.6539,0.654,0.6545,0.6548,0.655,0.6553,0.6555,0.6541,0.6541,0.6541,0.6541,0,0,0.631,0.6346,0.6349,0.6361,0.6387,0.64,0.6416,0.6437,0.6446,0.6464,0.6478,0.6502,0.6506,0.6519,0.653,0.6539,0.6545,0.6543,0.6544,0.6543,0.6562,0.6559,0.656,0.6551,0.6551,0.6552,0.6561,0,0.6316,0.6344,0.6361,0.6382,0.6398,0.6413,0.6427,0.6444,0.6458,0.6473,0.6488,0.6505,0.651,0.6517,0.6527,0.6542,0.6549,0.6542,0.6564,0.6564,0.6558,0.6562,0.6558,0.6566,0.6562,0.6563,0.6563,0,0.6326,0.6344,0.6368,0.6393,0.6401,0.6412,0.6433,0.6448,0.6468,0.6477,0.6492,0.6503,0.652,0.6522,0.6545,0.654,0.655,0.6559,0.656,0.6563,0.6564,0.6565,0.6569,0.657,0.6565,0.6565,0.6565,0,0.6318,0.6349,0.6367,0.6377,0.6407,0.6415,0.6428,0.6448,0.646,0.6478,0.6486,0.6506,0.6517,0.6532,0.6549,0.6548,0.6571,0.6574,0.6579,0.6579,0.6584,0.6583,0.6589,0.6589,0.6589,0.6589,0.6589,0,0.6323,0.6337,0.6364,0.6375,0.6392,0.641,0.6426,0.644,0.6458,0.6472,0.6486,0.6499,0.652,0.6536,0.6549,0.6567,0.6572,0.658,0.6583,0.6579,0.6578,0.6585,0.6585,0.659,0.659,0.6589,0.6589,0,0.6317,0.6336,0.6357,0.6384,0.6391,0.6402,0.6425,0.6436,0.6451,0.6468,0.6474,0.6496,0.6515,0.6533,0.6559,0.6568,0.6586,0.659,0.6579,0.6581,0.6586,0.6585,0.6597,0.66,0.6598,0.6598,0.6598,0,0.6319,0.633,0.6359,0.637,0.6382,0.6399,0.6412,0.6431,0.6443,0.6468,0.6476,0.6497,0.6514,0.6544,0.6563,0.6582,0.6587,0.659,0.659,0.6586,0.6588,0.6587,0.6589,0.659,0.659,0.659,0.659,0,0.6321,0.633,0.6347,0.6369,0.6383,0.6401,0.6419,0.6427,0.6449,0.6462,0.6483,0.6496,0.6523,0.6543,0.6565,0.6578,0.6588,0.659,0.6592,0.6588,0.6581,0.6585,0.6579,0.6589,0.6589,0.6589,0.6589,0.6589,0.6319,0.633,0.6352,0.6372,0.6387,0.6404,0.6416,0.6433,0.645,0.6473,0.6484,0.6504,0.6525,0.6555,0.6568,0.6584,0.6587,0.659,0.6591,0.6591,0.6591,0.6578,0.6588,0.6588,0.6589,0.6589,0.6589,0,0.6322,0.6337,0.6355,0.638,0.6395,0.6404,0.6424,0.6437,0.6455,0.6473,0.649,0.6514,0.6534,0.6554,0.6575,0.6584,0.6589,0.6589,0.6588,0.6591,0.6587,0.6583,0.6584,0.6584,0.6584,0.6584,0.6584,0.6584,0.6325,0.6345,0.6356,0.6384,0.6399,0.6419,0.643,0.6446,0.6461,0.6487,0.6504,0.6517,0.6536,0.6559,0.6577,0.6583,0.659,0.6589,0.6595,0.6591,0.6592,0.6592,0.6588,0.659,0.659,0.6598,0.6598,0.6598]},{"header":{"parameterUnit":"m.s-1","parameterCategory":1,"la1":30.2991,"la2":30.254,"lo1":-89.0895,"lo2":-89.0444,"dy":0.0017,"dx":0.0017,"nx":28,"ny":28,"refTime":"2025-11-14T03:00:00:Z","depth":0,"parameterNumber":3,"parameterNumberName":"V-component_of_WINDS"},"data":[0,0,0,0,0,0,0,0,0,0,0,0,0,0,0,0,0,0,0,0,0,0,0,0,0,0,0,0,0,0,0,0,0,0,0,0,0,0,0,0,0,0,0,0,0,0,0,0,0,0,0,0,0,0,0,0,0,0,2.0296,2.0296,0,2.0264,2.0263,2.0263,2.0286,2.0287,2.0288,2.0289,2.0248,2.0246,2.0244,0,0,0,0,0,0,0,0,0,0,0,0,0,2.037,2.0368,2.0296,2.0296,2.0295,2.0264,2.0263,2.0263,2.0286,2.0287,2.0288,2.029,2.0249,2.0246,2.0244,0,0,0,0,0,0,0,0,0,0,0,0,0,2.0337,2.0368,2.0296,2.0303,2.0303,2.0264,2.0263,2.0263,2.0286,2.0287,2.0289,2.029,2.025,2.0247,2.0244,2.0193,0,0,2.0234,2.0233,0,0,0,0,0,0,0,0,2.0339,2.0335,2.0302,2.0302,2.0303,2.0281,2.0274,2.0239,2.0285,2.0292,2.0289,2.0291,2.0257,2.0254,2.0244,2.0191,2.0189,2.0234,2.0232,2.0231,2.023,0,0,0,0,0,0,0,2.0341,2.0336,2.0283,2.0302,2.0302,2.0305,2.0302,2.0268,2.0266,2.0292,2.0293,2.029,2.0258,2.0247,2.0243,2.0189,2.0234,2.0231,2.0229,2.0228,2.0092,2.009,0,0,0,0,0,0,2.0344,2.0338,2.0284,2.0282,2.0326,2.0303,2.03,2.0286,2.0267,2.0265,2.0288,2.0291,2.0251,2.0247,2.0242,2.018,2.0231,2.0228,2.0226,2.0093,2.0091,2.0089,0,0,0,0,0,0,2.0346,2.0339,2.0285,2.031,2.0304,2.03,2.0284,2.0285,2.0274,2.0264,2.0263,2.0278,2.0252,2.0246,2.0205,2.0179,2.0226,2.0224,2.0095,2.0093,2.009,2.0058,0,0,0,0,0,0,2.0348,2.034,2.0322,2.031,2.0303,2.0252,2.0283,2.0283,2.027,2.0272,2.0254,2.0253,2.0253,2.021,2.0202,2.0176,2.0221,2.0098,2.0094,2.0091,2.0061,2.0054,2.0049,0,0,0,0,0,2.035,2.0313,2.0321,2.0314,2.0281,2.025,2.0246,2.0249,2.0267,2.0248,2.0242,2.0253,2.0184,2.0205,2.0197,2.0169,2.0099,2.0095,2.0091,2.0064,2.0056,2.0049,0,0,0,0,0,0,2.0319,2.0311,2.032,2.0278,2.0265,2.0254,2.0231,2.024,2.022,2.0223,2.0226,2.0222,2.0179,2.017,2.0194,2.0119,2.0144,2.0138,2.0126,2.0118,2.0112,2.0114,2.0219,0,0,0,0,0,2.0308,2.0286,2.0279,2.0243,2.0236,2.0234,2.0221,2.0225,2.021,2.0204,2.0195,2.0178,2.0152,2.0135,2.0111,2.006,2.0056,2.0037,2.0031,2.0026,2.002,1.9992,1.9983,2.0076,2.0076,2.0076,0,0,2.0283,2.0276,2.0262,2.0236,2.0227,2.0201,2.0229,2.0202,2.0182,2.0199,2.0161,2.0153,2.0134,2.0088,2.0067,2.0079,1.9994,2.0021,2.0017,2.0014,1.9987,1.9978,1.997,2.0073,2.0074,2.0074,0,0,2.0226,2.0219,2.0188,2.0178,2.0164,2.0163,2.0155,2.0143,2.0139,2.0102,2.0113,2.0089,2.0045,2.0031,2.0018,1.9955,1.9964,1.9947,1.9914,1.9886,1.9878,1.9872,1.9848,1.984,1.9942,1.9942,1.9942,0,2.0196,2.0162,2.0169,2.0141,2.0129,2.0146,2.0113,2.0102,2.0079,2.0069,2.0084,2.0029,2.0017,1.9968,1.9953,1.9942,1.9931,1.9949,1.9879,1.9873,1.9867,1.9844,1.9835,1.994,1.994,1.994,1.994,0,2.0125,2.0101,2.0077,2.0057,2.0042,2.0011,2.0012,1.9996,2.0001,1.9998,1.9958,1.9945,1.9918,1.9907,1.9911,1.9858,1.9866,1.988,1.9905,1.9856,1.9834,1.9826,1.9937,1.9937,1.9938,1.9939,0,0,2.0046,2.0033,2.0023,2.0015,2.0,1.998,1.9949,1.9926,1.9911,1.9894,1.9867,1.983,1.9843,1.9828,1.983,1.9806,1.9756,1.9823,1.9823,1.981,1.9694,1.9683,1.9673,1.9762,1.9761,1.9759,1.9695,0,1.9987,1.9936,1.9943,1.9893,1.9869,1.9885,1.9858,1.9845,1.9841,1.9818,1.9813,1.9786,1.9807,1.9798,1.9775,1.9767,1.9732,1.9772,1.9734,1.9733,1.9737,1.9662,1.965,1.959,1.9687,1.9686,1.9685,0,1.9911,1.9895,1.9844,1.9833,1.9823,1.9799,1.9778,1.9757,1.9741,1.974,1.9724,1.9731,1.9697,1.9724,1.9676,1.9703,1.9688,1.9681,1.9679,1.9675,1.9705,1.9654,1.9571,1.9562,1.9672,1.9673,1.9674,0,1.9857,1.9822,1.9787,1.9779,1.9766,1.9748,1.9741,1.9728,1.9713,1.9693,1.9683,1.9659,1.9645,1.9625,1.9624,1.9644,1.9575,1.9602,1.9571,1.9571,1.9554,1.9555,1.9467,1.9547,1.9547,1.9547,1.9547,0,1.979,1.9757,1.9763,1.9741,1.9704,1.9711,1.9673,1.9668,1.9656,1.9631,1.9643,1.9619,1.962,1.9595,1.9593,1.9553,1.9547,1.9543,1.9543,1.9541,1.9541,1.953,1.9534,1.9545,1.9545,1.9546,1.9546,0,1.9722,1.9725,1.9688,1.9679,1.9676,1.9649,1.964,1.9618,1.9616,1.9585,1.9578,1.9573,1.9544,1.9542,1.9507,1.9506,1.9457,1.9462,1.9463,1.9463,1.9432,1.9434,1.9332,1.9318,1.9408,1.9407,1.9407,0,1.9679,1.9655,1.9644,1.963,1.9623,1.9599,1.9585,1.959,1.9574,1.9555,1.9534,1.9507,1.9486,1.9438,1.943,1.9403,1.9406,1.9373,1.9402,1.9401,1.9404,1.9405,1.9402,1.9366,1.9365,1.9364,1.9364,0,1.96,1.9603,1.9584,1.9564,1.9548,1.9532,1.9517,1.9504,1.9507,1.9488,1.946,1.9444,1.941,1.9382,1.9356,1.9346,1.9354,1.9355,1.9346,1.9343,1.9345,1.9342,1.9446,1.9357,1.9357,1.9358,1.9358,1.9359,1.9543,1.9522,1.9511,1.9489,1.9479,1.9465,1.9444,1.944,1.9418,1.9393,1.9396,1.9365,1.9348,1.9315,1.9303,1.9276,1.9287,1.9275,1.9271,1.9268,1.9264,1.935,1.9272,1.9272,1.9272,1.9272,1.9272,0,1.9464,1.9458,1.9438,1.9418,1.94,1.9413,1.9398,1.938,1.9354,1.9339,1.9319,1.9286,1.9258,1.9249,1.9221,1.9202,1.9205,1.9194,1.9195,1.9192,1.9256,1.9266,1.9192,1.9192,1.9192,1.9192,1.9192,1.9192,1.9421,1.9386,1.9387,1.9347,1.934,1.9312,1.9302,1.9288,1.9277,1.9241,1.9219,1.9214,1.9201,1.9173,1.9148,1.9145,1.9134,1.9121,1.912,1.918,1.9188,1.9195,1.9205,1.9119,1.9119,1.9058,1.9058,1.9057]}]]